Starlink 32634

operational
NORAD ID: 62313 Int'l Des: 2024-239 Owner: SPXS Country: US Constellation: starlink
LEOCIRCULAR

About Starlink 32634

Description loading...

Live Position

Loading 3D Globe...

Upcoming Passes

Altitude History

Altitude vs Time

uPlot chart will show altitude changes over time

Two-Line Element Set

1 62313U 24239N 25259.75630768 .00036633 00000-0 92111-3 0 9998
2 62313 53.1595 271.1935 0000284 14.6750 345.4263 15.39629503 42905
Epoch: Sep 16, 2025 • Age: 39 hours

Current Status

Altitude 450.9 km
Velocity 7.65 km/s
Sub-Earth Point 42.76°N, 169.28°E
Launch Date Dec 13, 2024
Age 0.7 years
Type internet

Technical Details

Classification Payload
Mass 730.00 kg
Dry Mass 700.00 kg
Total Mass 730.00 kg
Length 0.30 m
Diameter 4.10 m
Span 29.00 m
Shape Box + pan
Manufacturer SPXS
Bus Type Starlink V2M
Phase Status In Orbit
Owner/State SPXS/US

Large Constellations

Loading constellations...